Showing default

GEESAT 3-08, 61018

Orbit data source: Space-Track

GEESAT 3-08, 61018 is a payload satellite owned by GeeSpace (CN) in LEO that was launched on Thu, 05 Sep 2024 UTC via a CHANG ZHENG 6 launch vehicle from the Taiyaun Space Center, China (TSC). Payloads include a variety of satellites, spacecraft, and rockets equipped with specific instruments for various scientific and technological missions. These include communications satellites like Starlink; space stations such as the ISS; scientific satellites like the Hubble; Earth observation satellites from companies like Planet Labs, Umbra, and HawkEye 360; GPS; miniature CubeSats for education and research; and military/defense satellites.

Loading next visibility...
GEESAT 3-08 details
Identifier
61018, 2024-159H
Orbit
LEO
Last TLE update9 hours ago
Origin
Flag of CNGeeSpace (CN / PRC)
ManufacturerTaizhou Xingkong
MissionOperational spacecraft
Bus & MotorGEESAT1, Unknown motor
Mass130 kg wet, 130 kg dry
Launch date (UTC)
2024-09-05 (4 months ago)
Launch vehicle
CHANG ZHENG 6
Launch site
Taiyaun Space Center, China (TSC)
Object type
Payload
Rocket body
Debris
Shape & HBRUnknown
Radar Cross SectionMedium (>0.1 m² and <1 m²)

Expand to show TLE details & history

TLE from 9 hours ago
0 GEESAT 3-08
1 61018U 24159H   25015.09978742  .00006901  00000-0  70065-3 0  9993
2 61018  50.0062 341.8603 0005374 347.5641  12.5167 14.91742283 19604
Epoch: 2025-01-15T02:23Z
Definitive object data (Epoch: 2025-01-15T02:23:41.633Z)
Latitude-0.00003°
Longitude-168.86018°
Altitude589.393 km
Speed7.569 km/s
True Right ascension22h 47m 26s
True Declination0° 00' 00"
Sunlit
Object was in daylight at TLE epoch
Visualization TLE readout
Latitude-46.40506°
Longitude128.11403°
Altitude606.065 km
Speed7.557 km/s
Apparent Right ascension21h 31m 15s
Apparent Declination-52° 16' 12"
Sunlit
Object is in daylight
Visualization observer readout
Local Sidereal Time12:23:48
Azimuth127.415° SE
Elevation-58.209°
Doppler factor1
Orbital elements
Apogee altitude597.009 km
Perigee altitude589.516 km
Semi-major axis6,971.4 km
Eccentricity0.0005374
Inclination50.0062°
RAAN341.8603°
Arg. of periapsis347.5641°
True anomaly12.53005°
Mean anomaly12.5167°
Eccentric anomaly12.52338°
Mean motion3.72875 °/min
BSTAR0.00070065
Orbital period96.55 mins
Loading maneuver chart data...
Loading historical data...
Loading historical data...
Loading historical data...
Loading historical data...
Loading historical data...
Loading historical data...
Loading historical data...

GEESAT 3-08 Visibility forecast

Observer location: undefined°, undefined

Span
Click to sort rows by Start time (UTC) header in descending order
Start Az.
Max El. time (UTC)
Max El. Az.
Max El.
End time (UTC)
End Az.
6 mins2025-01-15 23:26:33.904Z185.744° SSW2025-01-15 23:29:33.904Z140.711° SSE21.952°2025-01-15 23:32:33.904Z87.194° E
7 mins2025-01-16 01:07:33.904Z252.746° W2025-01-16 01:10:33.904Z339.745° N41.399°2025-01-16 01:14:33.904Z50.728° ENE
5 mins2025-01-16 02:49:33.904Z306.625° NW2025-01-16 02:51:33.904Z342.04° N22.114°2025-01-16 02:54:33.904Z35.836° NE
5 mins2025-01-16 04:31:33.904Z329.735° NNW2025-01-16 04:33:33.904Z5.93° NNE21.944°2025-01-16 04:36:33.904Z57.869° ENE
6 mins2025-01-16 06:12:33.904Z316.045° NNW2025-01-16 06:15:33.904Z52.159° ENE39.991°2025-01-16 06:18:33.904Z106.914° ESE
5 mins2025-01-16 07:53:33.904Z268.91° W2025-01-16 07:55:33.904Z231.939° WSW23.463°2025-01-16 07:58:33.904Z177.614° S
|